Location: Arrow Head Lodge
(44.7836°N, 106.9681°W)
Time: 04:37:49
(UTC+00:00)

X-37B - Visible Passes

Search period start: 21 October 2021 00:00
Search period end: 31 October 2021 00:00
Orbit: 385 x 389 km, 45.0° (Epoch: 17 October)

Date Brightness Start Highest point End Pass type
(mag) Time Alt. Az. Time Alt. Az. Time Alt. Az.
21 Oct 1.2 02:08:20 10° W 02:10:57 57° W 02:10:57 57° W visible
22 Oct 0.5 01:09:57 10° W 01:13:08 84° N 01:15:09 21° E visible
22 Oct 3.6 02:46:38 10° W 02:47:26 16° W 02:47:26 16° W visible
23 Oct 0.6 01:48:13 10° W 01:51:24 67° SSW 01:51:41 61° SSE visible
24 Oct 0.6 00:49:51 10° W 00:53:03 86° S 00:55:59 12° E visible
24 Oct 3.0 02:26:39 10° W 02:28:17 22° WSW 02:28:17 22° WSW visible
25 Oct 1.4 01:28:09 10° W 01:31:14 45° SSW 01:32:39 26° SE visible
26 Oct 2.9 02:06:53 10° WSW 02:09:12 19° SSW 02:09:26 18° SSW visible
27 Oct 2.3 01:08:10 10° W 01:11:00 29° SSW 01:13:49 10° SE visible
28 Oct 3.6 01:47:55 10° SW 01:48:50 11° SW 01:49:45 10° SSW visible
29 Oct 3.3 00:48:25 10° WSW 00:50:43 18° SSW 00:53:00 10° SSE visible
